Voltar ao catálogo

KUIPER-00646

AtivoComunicaçõesLEO
NORAD 69789·PAYLOAD·🇺🇸 United States

Lançado Jul 2, 2026 de Cape Canaveral Space Force Station

Loading…

Próximas Passagens (próximas 24 horas)

TLE

AtualizadoSource: CelesTrak SupGP

Época: Sep 14, 2026, 20:27 UTC

1 69789C 26151AC  26257.85276620 -.00407780  00000+0 -50604-1 0  2572
2 69789  51.8982 249.2852 0003615  70.4624 159.2465 14.82567367    16

Acompanhe KUIPER-00646 em tempo real com AllMySat

Download on the App Store